This is the latest recevied weather packets stored in our database for station/object KA3RQR. If no packets are shown the sender has not sent any weather packets the latest 10 day(s).
| Time | Temp. | Humidity | Pressure | Rain* | Wind** | Luminosity | Snow |
|---|---|---|---|---|---|---|---|
| 1777809835 | 6.67° C | 63% | 1017.5 hPa | 0 mm | - | 28 W/m² | - |
| 1777809533 | 6.11° C | 62% | 1017.5 hPa | 0 mm | - | 28 W/m² | - |
| 1777809231 | 6.11° C | 63% | 1017.5 hPa | 0 mm | - | 26 W/m² | - |
| 1777808929 | 6.11° C | 65% | 1017.4 hPa | 0 mm | - | 26 W/m² | - |
| 1777808624 | 6.11° C | 66% | 1017.3 hPa | 0 mm | - | 25 W/m² | - |
| 1777808321 | 5.56° C | 69% | 1017.1 hPa | 0 mm | - | 23 W/m² | - |
| 1777808021 | 5.56° C | 70% | 1017.3 hPa | 0 mm | - | 23 W/m² | - |
| 1777807717 | 5.56° C | 71% | 1017.2 hPa | 0 mm | - | 22 W/m² | - |
| 1777807415 | 5° C | 72% | 1017 hPa | 0 mm | - | 21 W/m² | - |
| 1777807110 | 5° C | 72% | 1016.9 hPa | 0 mm | - | 20 W/m² | - |
| 1777806808 | 5° C | 73% | 1016.6 hPa | 0 mm | - | 19 W/m² | - |
| 1777806503 | 5° C | 73% | 1016.6 hPa | 0 mm | - | 19 W/m² | - |
| 1777806200 | 4.44° C | 74% | 1016.5 hPa | 0 mm | - | 17 W/m² | - |
| 1777805897 | 4.44° C | 75% | 1016.5 hPa | 0 mm | - | 16 W/m² | - |
| 1777805594 | 4.44° C | 76% | 1016.4 hPa | 0 mm | - | 14 W/m² | - |
| 1777805292 | 3.89° C | 77% | 1016.5 hPa | 0 mm | - | 12 W/m² | - |
| 1777804989 | 3.89° C | 78% | 1016.4 hPa | 0 mm | - | 11 W/m² | - |
| 1777804686 | 3.89° C | 80% | 1016.1 hPa | 0 mm | - | 9 W/m² | - |
| 1777804384 | 3.89° C | 81% | 1016.1 hPa | 0 mm | - | 7 W/m² | - |
| 1777804081 | 3.33° C | 82% | 1016 hPa | 0 mm | - | 5 W/m² | - |
| 1777803778 | 3.33° C | 82% | 1015.8 hPa | 0 mm | - | 5 W/m² | - |
| 1777803473 | 3.33° C | 82% | 1015.9 hPa | 0 mm | - | 2 W/m² | - |
| 1777803171 | 3.33° C | 82% | 1016 hPa | 0 mm | - | 1 W/m² | - |
| 1777802868 | 3.89° C | 81% | 1015.5 hPa | 0 mm | - | 0 W/m² | - |
| 1777802566 | 3.89° C | 81% | 1015.6 hPa | 0 mm | - | 0 W/m² | - |
* Rain latest hour (hover to see other rain measurements)
** Current wind speed in m/s (hover to see current wind gust speed)